STARLINK-3318 (50837 NORAD) Tracking and Keplerian Element Data

This shows tracking and keplerian element data for the satellite.

Feedback or suggestion? Click here.




ElementValue
Catalog50837
NameSTARLINK-3318
Epoch Orbit375
Epoch Day22.91667824
Epoch Year2022
RAAN119.7645
Inclination53.2175
Eccentricity0.0001028
Argument of Perigee85.873
Mean Anonmoly227.214
Mean Motion15.75242895
Decay Rate-0.00820863
L11 50837U 22001AL 22022.91667824 -.00820863 00000+0 -58915-2 0 9997
L22 50837 53.2175 119.7645 0001028 85.8730 227.2140 15.75242895 3754

Live tracking and technical data element details for STARLINK-3318 (NORAD 50837). STARLINK-3318 can be tracked NOW for your location showing map with azimuth and elevation plus other details from your city location.

Track the satellite on the map from your city or location and see movement details for azimuth, elevation, latitude, longitude, range, height, and movement on the map or in text.







IsCatalogInMostPopularTable: catalog: 50837, numindb: 3
Update: records affected: 1



GetName: 50837 STARLINK-3318

Hit Count: updated at: Mon, 24 Jan 2022 00:59:38 GMT